Time,TemperatureF,DewpointF,PressureIn,WindDirection,WindDirectionDegrees,WindSpeedMPH,WindSpeedGustMPH,Humidity,HourlyPrecipIn,Conditions,Clouds,dailyrainin,SoftwareType,DateUTC
2013-03-24 00:02:00,21.0,19.0,-100.00,NW,320,9.0,11.0,96,0.00,,,0.00,,2013-03-24 05:02:00,
2013-03-24 00:12:00,21.0,19.0,-100.00,NW,320,9.0,12.0,96,0.00,,,0.00,,2013-03-24 05:12:00,
2013-03-24 00:22:00,21.0,19.0,-100.00,NW,320,9.0,11.0,96,0.00,,,0.00,,2013-03-24 05:22:00,
2013-03-24 00:32:00,20.0,19.0,-100.00,NW,320,9.0,11.0,96,0.00,,,0.00,,2013-03-24 05:32:00,
2013-03-24 00:42:00,20.0,19.0,-100.00,NW,315,9.0,12.0,96,0.00,,,0.00,,2013-03-24 05:42:00,
2013-03-24 00:52:00,20.0,19.0,-100.00,NW,320,9.0,11.0,96,0.00,,,0.00,,2013-03-24 05:52:00,
2013-03-24 01:02:00,20.0,19.0,-100.00,NW,320,9.0,11.0,96,0.00,,,0.00,,2013-03-24 06:02:00,
2013-03-24 01:12:00,20.0,19.0,-100.00,NW,320,9.0,11.0,96,0.00,,,0.00,,2013-03-24 06:12:00,
2013-03-24 01:22:00,20.0,19.0,-100.00,NW,315,9.0,11.0,97,0.00,,,0.00,,2013-03-24 06:22:00,
2013-03-24 01:32:00,20.0,19.0,-100.00,NW,320,9.0,11.0,97,0.00,,,0.00,,2013-03-24 06:32:00,
2013-03-24 01:42:00,20.0,19.0,-100.00,NW,315,9.0,12.0,97,0.00,,,0.00,,2013-03-24 06:42:00,
2013-03-24 02:02:00,19.0,18.0,-100.00,NW,325,7.0,10.0,97,0.00,,,0.00,,2013-03-24 07:02:00,
2013-03-24 02:12:00,19.0,18.0,-100.00,NW,325,7.0,8.0,97,0.00,,,0.00,,2013-03-24 07:12:00,
2013-03-24 02:22:00,19.0,18.0,-100.00,NW,325,7.0,9.0,97,0.00,,,0.00,,2013-03-24 07:22:00,
2013-03-24 02:32:00,19.0,18.0,-100.00,NW,325,7.0,8.0,97,0.00,,,0.00,,2013-03-24 07:32:00,
2013-03-24 02:42:00,19.0,18.0,-100.00,NNW,330,6.0,9.0,98,0.00,,,0.00,,2013-03-24 07:42:00,
2013-03-24 06:03:00,18.0,18.0,-100.00,NW,315,7.0,9.0,99,0.00,,,0.00,,2013-03-24 11:03:00,
2013-03-24 06:12:00,18.0,18.0,-100.00,NW,305,7.0,10.0,99,0.00,,,0.00,,2013-03-24 11:12:00,
2013-03-24 06:22:00,18.0,18.0,-100.00,NW,320,5.0,6.0,99,0.00,,,0.00,,2013-03-24 11:22:00,
2013-03-24 06:32:00,18.0,18.0,-100.00,NW,315,6.0,7.0,99,0.00,,,0.00,,2013-03-24 11:32:00,
2013-03-24 06:42:00,18.0,18.0,-100.00,NW,325,7.0,8.0,99,0.00,,,0.00,,2013-03-24 11:42:00,
2013-03-24 06:52:00,18.0,18.0,-100.00,NW,320,6.0,9.0,99,0.00,,,0.00,,2013-03-24 11:52:00,
2013-03-24 07:02:00,18.0,18.0,-100.00,NW,315,4.0,7.0,99,0.00,,,0.00,,2013-03-24 12:02:00,
2013-03-24 07:12:00,18.0,18.0,-100.00,NW,315,6.0,7.0,99,0.00,,,0.00,,2013-03-24 12:12:00,
2013-03-24 07:22:00,18.0,18.0,-100.00,NW,315,5.0,7.0,99,0.00,,,0.00,,2013-03-24 12:22:00,
2013-03-24 07:32:00,18.0,18.0,-100.00,NW,315,7.0,7.0,99,0.00,,,0.00,,2013-03-24 12:32:00,
2013-03-24 07:42:00,18.0,18.0,-100.00,NW,320,7.0,9.0,99,0.00,,,0.00,,2013-03-24 12:42:00,
2013-03-24 07:52:00,18.0,18.0,-100.00,NNW,330,6.0,7.0,100,0.00,,,0.00,,2013-03-24 12:52:00,
2013-03-24 08:02:00,18.0,18.0,-100.00,NNW,330,6.0,6.0,100,0.00,,,0.00,,2013-03-24 13:02:00,
2013-03-24 08:12:00,18.0,18.0,-100.00,NNW,330,5.0,6.0,99,0.00,,,0.00,,2013-03-24 13:12:00,
2013-03-24 08:22:00,18.0,18.0,-100.00,NW,325,6.0,6.0,99,0.00,,,0.00,,2013-03-24 13:22:00,
2013-03-24 08:32:00,18.0,18.0,-100.00,NNW,330,6.0,7.0,99,0.00,,,0.00,,2013-03-24 13:32:00,
2013-03-24 08:42:00,18.0,18.0,-100.00,NNW,330,6.0,7.0,99,0.00,,,0.00,,2013-03-24 13:42:00,
2013-03-24 09:02:00,19.0,19.0,-100.00,NNW,340,6.0,7.0,99,0.00,,,0.00,,2013-03-24 14:02:00,
2013-03-24 09:12:00,20.0,19.0,-100.00,NNW,340,6.0,7.0,99,0.00,,,0.00,,2013-03-24 14:12:00,
2013-03-24 09:32:00,22.0,21.0,-100.00,North,0,4.0,6.0,99,0.00,,,0.00,,2013-03-24 14:32:00,
2013-03-24 09:52:00,23.0,23.0,-100.00,North,0,4.0,6.0,99,0.00,,,0.00,,2013-03-24 14:52:00,
2013-03-24 10:02:00,24.0,23.0,-100.00,North,0,4.0,6.0,99,0.00,,,0.00,,2013-03-24 15:02:00,
2013-03-24 10:33:00,26.0,25.0,-100.00,NE,35,7.0,9.0,99,0.00,,,0.00,,2013-03-24 15:33:00,
2013-03-24 10:43:00,27.0,27.0,-100.00,NE,40,8.0,10.0,99,0.00,,,0.00,,2013-03-24 15:43:00,
2013-03-24 10:53:00,27.0,27.0,-100.00,NE,40,9.0,12.0,99,0.00,,,0.00,,2013-03-24 15:53:00,
2013-03-24 11:22:00,28.0,27.0,-100.00,NE,55,9.0,11.0,98,0.00,,,0.00,,2013-03-24 16:22:00,
2013-03-24 11:33:00,29.0,28.0,-100.00,NE,50,9.0,11.0,97,0.00,,,0.00,,2013-03-24 16:33:00,
2013-03-24 11:42:00,29.0,28.0,-100.00,NE,55,10.0,12.0,96,0.00,,,0.00,,2013-03-24 16:42:00,
2013-03-24 11:52:00,30.0,28.0,-100.00,NE,40,8.0,12.0,94,0.00,,,0.00,,2013-03-24 16:52:00,
2013-03-24 12:02:00,30.0,28.0,-100.00,NE,40,9.0,12.0,93,0.00,,,0.00,,2013-03-24 17:02:00,
2013-03-24 12:12:00,29.0,28.0,-100.00,NE,40,10.0,13.0,93,0.00,,,0.00,,2013-03-24 17:12:00,
2013-03-24 12:22:00,29.0,28.0,-100.00,NE,50,11.0,12.0,93,0.00,,,0.00,,2013-03-24 17:22:00,
2013-03-24 12:32:00,30.0,28.0,-100.00,NE,35,9.0,14.0,91,0.00,,,0.00,,2013-03-24 17:32:00,
2013-03-24 12:42:00,30.0,28.0,-100.00,NE,45,9.0,12.0,91,0.00,,,0.00,,2013-03-24 17:42:00,
2013-03-24 12:52:00,31.0,28.0,-100.00,NE,40,9.0,12.0,89,0.00,,,0.00,,2013-03-24 17:52:00,
2013-03-24 13:03:00,31.0,27.0,-100.00,NE,55,10.0,12.0,87,0.00,,,0.00,,2013-03-24 18:03:00,
2013-03-24 13:12:00,31.0,27.0,-100.00,NE,50,9.0,12.0,86,0.00,,,0.00,,2013-03-24 18:12:00,
2013-03-24 13:22:00,31.0,27.0,-100.00,NE,35,10.0,13.0,86,0.00,,,0.00,,2013-03-24 18:22:00,
2013-03-24 13:32:00,31.0,27.0,-100.00,NNE,25,9.0,12.0,85,0.00,,,0.00,,2013-03-24 18:32:00,
2013-03-24 13:42:00,31.0,27.0,-100.00,NNE,15,8.0,12.0,84,0.00,,,0.00,,2013-03-24 18:42:00,
2013-03-24 13:52:00,31.0,27.0,-100.00,NNE,30,11.0,12.0,84,0.00,,,0.00,,2013-03-24 18:52:00,
2013-03-24 14:02:00,31.0,27.0,-100.00,NNE,20,11.0,13.0,84,0.00,,,0.00,,2013-03-24 19:02:00,
2013-03-24 14:12:00,31.0,27.0,-100.00,NNE,25,12.0,15.0,85,0.00,,,0.00,,2013-03-24 19:12:00,
2013-03-24 14:22:00,31.0,27.0,-100.00,NNE,30,11.0,14.0,85,0.00,,,0.00,,2013-03-24 19:22:00,
2013-03-24 14:32:00,31.0,27.0,-100.00,NNE,30,14.0,16.0,85,0.00,,,0.00,,2013-03-24 19:32:00,
2013-03-24 14:42:00,31.0,27.0,-100.00,NNE,25,15.0,17.0,85,0.00,,,0.00,,2013-03-24 19:42:00,
2013-03-24 14:52:00,31.0,27.0,-100.00,NNE,20,15.0,17.0,84,0.00,,,0.00,,2013-03-24 19:52:00,
2013-03-24 15:02:00,30.0,27.0,-100.00,NNE,25,16.0,19.0,83,0.00,,,0.00,,2013-03-24 20:02:00,
2013-03-24 15:12:00,30.0,27.0,-100.00,NNE,20,14.0,18.0,83,0.00,,,0.00,,2013-03-24 20:12:00,
2013-03-24 15:22:00,31.0,27.0,-100.00,NNE,25,13.0,17.0,83,0.00,,,0.00,,2013-03-24 20:22:00,
2013-03-24 15:32:00,31.0,27.0,-100.00,NNE,20,14.0,16.0,83,0.00,,,0.00,,2013-03-24 20:32:00,
2013-03-24 15:42:00,31.0,27.0,-100.00,NNE,20,10.0,16.0,82,0.00,,,0.00,,2013-03-24 20:42:00,
2013-03-24 15:52:00,32.0,27.0,-100.00,NNE,15,10.0,17.0,81,0.00,,,0.00,,2013-03-24 20:52:00,
2013-03-24 16:02:00,32.0,27.0,-100.00,NNE,20,13.0,18.0,78,0.00,,,0.00,,2013-03-24 21:02:00,
2013-03-24 16:12:00,32.0,27.0,-100.00,North,0,9.0,16.0,79,0.00,,,0.00,,2013-03-24 21:12:00,
2013-03-24 16:22:00,31.0,27.0,-100.00,NNW,345,11.0,14.0,81,0.00,,,0.00,,2013-03-24 21:22:00,
2013-03-24 16:33:00,31.0,27.0,-100.00,North,355,9.0,15.0,81,0.00,,,0.00,,2013-03-24 21:33:00,
2013-03-24 16:43:00,31.0,27.0,-100.00,NNW,345,8.0,13.0,82,0.00,,,0.00,,2013-03-24 21:43:00,
2013-03-24 16:52:00,31.0,27.0,-100.00,North,0,7.0,12.0,82,0.00,,,0.00,,2013-03-24 21:52:00,
2013-03-24 17:02:00,31.0,27.0,-100.00,NNW,340,8.0,12.0,83,0.00,,,0.00,,2013-03-24 22:02:00,
2013-03-24 17:13:00,31.0,27.0,-100.00,North,355,9.0,12.0,83,0.00,,,0.00,,2013-03-24 22:13:00,
2013-03-24 17:22:00,30.0,27.0,-100.00,NNW,340,11.0,15.0,87,0.00,,,0.00,,2013-03-24 22:22:00,
2013-03-24 17:33:00,30.0,27.0,-100.00,NNW,340,14.0,16.0,89,0.00,,,0.00,,2013-03-24 22:33:00,
2013-03-24 17:42:00,30.0,28.0,-100.00,NNW,335,13.0,16.0,92,0.00,,,0.00,,2013-03-24 22:42:00,
2013-03-24 18:02:00,30.0,28.0,-100.00,NW,320,10.0,13.0,94,0.00,,,0.00,,2013-03-24 23:02:00,
2013-03-24 18:12:00,30.0,28.0,-100.00,NW,325,12.0,14.0,95,0.00,,,0.00,,2013-03-24 23:12:00,
2013-03-24 18:22:00,29.0,28.0,-100.00,NW,325,12.0,14.0,96,0.00,,,0.00,,2013-03-24 23:22:00,
2013-03-24 18:32:00,29.0,28.0,-100.00,NW,325,11.0,14.0,97,0.00,,,0.00,,2013-03-24 23:32:00,
2013-03-24 18:42:00,29.0,28.0,-100.00,NW,325,12.0,16.0,98,0.00,,,0.00,,2013-03-24 23:42:00,
2013-03-24 18:52:00,29.0,28.0,-100.00,NNW,330,13.0,17.0,96,0.00,,,0.00,,2013-03-24 23:52:00,
2013-03-24 19:02:00,29.0,27.0,-100.00,NNW,335,13.0,17.0,94,0.00,,,0.00,,2013-03-25 00:02:00,
2013-03-24 19:12:00,29.0,27.0,-100.00,NNW,330,12.0,17.0,93,0.00,,,0.00,,2013-03-25 00:12:00,
2013-03-24 19:22:00,29.0,27.0,-100.00,NNW,330,14.0,18.0,92,0.00,,,0.00,,2013-03-25 00:22:00,
2013-03-24 19:32:00,29.0,27.0,-100.00,NW,325,14.0,18.0,90,0.00,,,0.00,,2013-03-25 00:32:00,
2013-03-24 19:42:00,28.0,27.0,-100.00,NW,325,14.0,17.0,89,0.00,,,0.00,,2013-03-25 00:42:00,
2013-03-24 19:52:00,28.0,25.0,-100.00,NNW,330,14.0,17.0,88,0.00,,,0.00,,2013-03-25 00:52:00,
2013-03-24 20:02:00,28.0,25.0,-100.00,NNW,330,13.0,17.0,87,0.00,,,0.00,,2013-03-25 01:02:00,
2013-03-24 20:22:00,28.0,25.0,-100.00,NW,325,13.0,18.0,88,0.00,,,0.00,,2013-03-25 01:22:00,
2013-03-24 20:32:00,27.0,25.0,-100.00,NW,325,13.0,19.0,88,0.00,,,0.00,,2013-03-25 01:32:00,
2013-03-24 20:42:00,27.0,25.0,-100.00,NW,325,15.0,19.0,89,0.00,,,0.00,,2013-03-25 01:42:00,
2013-03-24 20:52:00,27.0,25.0,-100.00,NW,325,14.0,19.0,90,0.00,,,0.00,,2013-03-25 01:52:00,
2013-03-24 21:02:00,27.0,25.0,-100.00,NW,325,14.0,18.0,90,0.00,,,0.00,,2013-03-25 02:02:00,
2013-03-24 21:12:00,27.0,25.0,-100.00,NW,325,14.0,17.0,90,0.00,,,0.00,,2013-03-25 02:12:00,
2013-03-24 21:22:00,27.0,25.0,-100.00,NW,325,15.0,19.0,90,0.00,,,0.00,,2013-03-25 02:22:00,
2013-03-24 21:32:00,27.0,25.0,-100.00,NNW,330,13.0,18.0,90,0.00,,,0.00,,2013-03-25 02:32:00,
2013-03-24 21:42:00,27.0,25.0,-100.00,NNW,330,13.0,19.0,90,0.00,,,0.00,,2013-03-25 02:42:00,
2013-03-24 21:52:00,27.0,25.0,-100.00,NNW,330,14.0,19.0,90,0.00,,,0.00,,2013-03-25 02:52:00,
2013-03-24 22:02:00,27.0,25.0,-100.00,NNW,340,13.0,17.0,90,0.00,,,0.00,,2013-03-25 03:02:00,
2013-03-24 22:12:00,27.0,25.0,-100.00,NNW,330,15.0,18.0,90,0.00,,,0.00,,2013-03-25 03:12:00,
2013-03-24 22:22:00,27.0,25.0,-100.00,NNW,340,14.0,19.0,89,0.00,,,0.00,,2013-03-25 03:22:00,
2013-03-24 22:33:00,27.0,25.0,-100.00,NNW,340,16.0,19.0,90,0.00,,,0.00,,2013-03-25 03:33:00,
2013-03-24 22:42:00,27.0,25.0,-100.00,NNW,335,15.0,20.0,91,0.00,,,0.00,,2013-03-25 03:42:00,
2013-03-24 22:52:00,27.0,25.0,-100.00,NNW,345,16.0,19.0,91,0.00,,,0.00,,2013-03-25 03:52:00,
2013-03-24 23:02:00,27.0,25.0,-100.00,NNW,340,16.0,19.0,92,0.00,,,0.00,,2013-03-25 04:02:00,
2013-03-24 23:12:00,27.0,25.0,-100.00,NNW,340,13.0,19.0,92,0.00,,,0.00,,2013-03-25 04:12:00,
2013-03-24 23:22:00,27.0,25.0,-100.00,NNW,345,11.0,15.0,93,0.00,,,0.00,,2013-03-25 04:22:00,
2013-03-24 23:33:00,27.0,25.0,-100.00,NNW,340,11.0,15.0,93,0.00,,,0.00,,2013-03-25 04:33:00,
2013-03-24 23:42:00,27.0,25.0,-100.00,NNW,345,12.0,14.0,94,0.00,,,0.00,,2013-03-25 04:42:00,
2013-03-24 23:52:00,26.0,25.0,-100.00,NNW,340,12.0,14.0,95,0.00,,,0.00,,2013-03-25 04:52:00,